When you browse on this site, cookies collect data to enhance your experience and personalize the content and advertising you see.
Visit our Privacy Policy to learn more. By continuing to use the site, you agree to this use of cookies and data.
  • In Hungary
  • List of Countries
  • For 7 days
  • Water Temperature
  • Satellite Maps
  • Weather Map
  • News
  • Weather Widgets
  • user-avatar
    Login

    Hourly Weather Sapporo

    Today, 16 January, Wednesday

    Time Temperature Precipitation Wind Pressure Humidity
    00:00 -5°C° 0.1 mm 5 mps 750 mmHg 81%
    01:00 -5°C° 0.2 mm 5 mps 750 mmHg 80%
    02:00 -6°C° 0.2 mm 5 mps 751 mmHg 80%
    03:00 -6°C° 0 mm 5 mps 750 mmHg 81%
    04:00 -7°C° 0.1 mm 5 mps 751 mmHg 80%
    05:00 -7°C° 0.1 mm 5 mps 751 mmHg 80%
    06:00 -7°C° 0.1 mm 5 mps 752 mmHg 79%
    07:00 -8°C° 0.1 mm 6 mps 752 mmHg 77%
    08:00 -9°C° 0.1 mm 6 mps 753 mmHg 76%
    09:00 -9°C° 0.1 mm 6 mps 753 mmHg 74%
    10:00 -9°C° 0.1 mm 6 mps 753 mmHg 73%
    11:00 -9°C° 0.1 mm 6 mps 753 mmHg 72%
    12:00 -8°C° 0.1 mm 6 mps 753 mmHg 71%
    13:00 -9°C° 0.1 mm 6 mps 754 mmHg 71%
    14:00 -9°C° 0.1 mm 6 mps 754 mmHg 72%
    15:00 -9°C° 0.1 mm 6 mps 754 mmHg 73%
    16:00 -8°C° 0.1 mm 5 mps 754 mmHg 75%
    17:00 -9°C° 0.1 mm 4 mps 754 mmHg 77%
    18:00 -9°C° 0.1 mm 4 mps 754 mmHg 79%
    19:00 -9°C° 0.1 mm 4 mps 754 mmHg 80%
    20:00 -8°C° 0.1 mm 3 mps 754 mmHg 81%
    21:00 -7°C° 0.1 mm 3 mps 753 mmHg 83%
    22:00 -7°C° 0.2 mm 3 mps 753 mmHg 83%
    23:00 -7°C° 0.2 mm 3 mps 752 mmHg 83%

    Tomorrow, 17 January, Thursday

    Time Temperature Precipitation Wind Pressure Humidity
    00:00 -8°C° 0.2 mm 4 mps 752 mmHg 82%
    01:00 -7°C° 0.2 mm 3 mps 751 mmHg 84%
    02:00 -7°C° 0.2 mm 3 mps 750 mmHg 86%
    03:00 -7°C° 0.2 mm 3 mps 749 mmHg 88%
    04:00 -7°C° 0.3 mm 4 mps 748 mmHg 85%
    05:00 -7°C° 0.3 mm 5 mps 748 mmHg 83%
    06:00 -8°C° 0.3 mm 6 mps 747 mmHg 81%
    07:00 -8°C° 0.1 mm 7 mps 748 mmHg 78%
    08:00 -10°C° 0.1 mm 8 mps 748 mmHg 75%
    09:00 -11°C° 0.1 mm 9 mps 748 mmHg 72%
    10:00 -12°C° 0.1 mm 9 mps 748 mmHg 72%
    11:00 -13°C° 0.1 mm 10 mps 748 mmHg 72%
    12:00 -14°C° 0.1 mm 10 mps 748 mmHg 72%
    13:00 -15°C° 0.1 mm 10 mps 748 mmHg 74%
    14:00 -17°C° 0.1 mm 10 mps 748 mmHg 75%
    15:00 -18°C° 0.1 mm 10 mps 748 mmHg 77%
    16:00 -17°C° 0.2 mm 9 mps 748 mmHg 77%
    17:00 -19°C° 0.2 mm 9 mps 748 mmHg 78%
    18:00 -18°C° 0.2 mm 8 mps 749 mmHg 79%
    19:00 -18°C° 0.2 mm 8 mps 749 mmHg 79%
    20:00 -17°C° 0.2 mm 8 mps 749 mmHg 79%
    21:00 -17°C° 0.2 mm 8 mps 749 mmHg 79%
    22:00 -16°C° 0.2 mm 8 mps 748 mmHg 79%
    23:00 -16°C° 0.2 mm 8 mps 748 mmHg 80%

    Day after tomorrow, 18 January, Friday

    Time Temperature Precipitation Wind Pressure Humidity
    00:00 -15°C° 0.2 mm 8 mps 748 mmHg 80%
    01:00 -15°C° 0.3 mm 8 mps 749 mmHg 80%
    02:00 -14°C° 0.3 mm 9 mps 749 mmHg 79%
    03:00 -14°C° 0.3 mm 9 mps 749 mmHg 79%
    04:00 -14°C° 0.2 mm 9 mps 750 mmHg 79%
    05:00 -12°C° 0.2 mm 9 mps 750 mmHg 78%
    06:00 -12°C° 0.2 mm 8 mps 751 mmHg 78%
    07:00 -11°C° 0.1 mm 8 mps 751 mmHg 78%
    08:00 -11°C° 0.1 mm 8 mps 751 mmHg 77%
    09:00 -11°C° 0.1 mm 8 mps 752 mmHg 76%
    10:00 -10°C° 0.2 mm 8 mps 752 mmHg 76%
    11:00 -10°C° 0.2 mm 8 mps 751 mmHg 77%
    12:00 -10°C° 0.2 mm 9 mps 751 mmHg 77%
    13:00 -10°C° 0.1 mm 8 mps 752 mmHg 77%
    14:00 -10°C° 0.1 mm 8 mps 752 mmHg 77%
    15:00 -10°C° 0.1 mm 8 mps 752 mmHg 77%
    16:00 -11°C° 0.1 mm 7 mps 752 mmHg 78%
    17:00 -11°C° 0.1 mm 7 mps 753 mmHg 80%
    18:00 -10°C° 0.1 mm 6 mps 754 mmHg 81%
    19:00 -10°C° 0.1 mm 6 mps 754 mmHg 81%
    20:00 -10°C° 0.1 mm 6 mps 754 mmHg 81%
    21:00 -10°C° 0.1 mm 5 mps 755 mmHg 80%
    22:00 -10°C° 0.1 mm 5 mps 755 mmHg 81%
    23:00 -10°C° 0.1 mm 5 mps 755 mmHg 81%

    19 January, Saturday

    Time Temperature Precipitation Wind Pressure Humidity
    00:00 -10°C° 0.1 mm 5 mps 755 mmHg 81%
    01:00 -10°C° 0.1 mm 5 mps 755 mmHg 81%
    02:00 -8°C° 0.1 mm 5 mps 755 mmHg 81%
    03:00 -8°C° 0.1 mm 5 mps 755 mmHg 81%
    04:00 -8°C° 0.1 mm 4 mps 755 mmHg 81%
    05:00 -8°C° 0.1 mm 4 mps 756 mmHg 82%
    06:00 -8°C° 0.1 mm 4 mps 756 mmHg 82%
    07:00 -8°C° 0 mm 4 mps 756 mmHg 80%
    08:00 -7°C° 0 mm 4 mps 756 mmHg 79%
    09:00 -7°C° 0 mm 4 mps 756 mmHg 77%
    10:00 -5°C° 0 mm 4 mps 756 mmHg 74%
    11:00 -4°C° 0 mm 4 mps 756 mmHg 72%
    12:00 -5°C° 0 mm 5 mps 756 mmHg 69%
    13:00 -5°C° 0 mm 5 mps 756 mmHg 71%
    14:00 -5°C° 0 mm 5 mps 755 mmHg 73%
    15:00 -5°C° 0 mm 5 mps 755 mmHg 75%
    16:00 -5°C° 0 mm 4 mps 755 mmHg 77%
    17:00 -7°C° 0 mm 4 mps 755 mmHg 80%
    18:00 -7°C° 0 mm 3 mps 755 mmHg 82%
    19:00 -7°C° 0 mm 3 mps 755 mmHg 83%
    20:00 -8°C° 0 mm 3 mps 755 mmHg 83%
    21:00 -8°C° 0 mm 3 mps 755 mmHg 84%
    22:00 -8°C° 0.1 mm 3 mps 755 mmHg 85%
    23:00 -7°C° 0.1 mm 3 mps 754 mmHg 85%

    20 January, Sunday

    Time Temperature Precipitation Wind Pressure Humidity
    00:00 -7°C° 0.1 mm 3 mps 754 mmHg 86%
    01:00 -6°C° 0.1 mm 2 mps 753 mmHg 86%
    02:00 -6°C° 0.1 mm 2 mps 753 mmHg 87%
    03:00 -6°C° 0.1 mm 2 mps 753 mmHg 88%
    04:00 -4°C° 0.2 mm 1 mps 752 mmHg 89%
    05:00 -4°C° 0.2 mm 1 mps 752 mmHg 90%
    06:00 -4°C° 0.2 mm 1 mps 751 mmHg 91%
    07:00 -4°C° 0.2 mm 1 mps 751 mmHg 91%
    08:00 -3°C° 0.2 mm 1 mps 751 mmHg 91%
    09:00 -3°C° 0.2 mm 1 mps 750 mmHg 91%
    10:00 -3°C° 0.4 mm 1 mps 750 mmHg 90%
    11:00 -2°C° 0.4 mm 1 mps 749 mmHg 90%
    12:00 -2°C° 0.4 mm 1 mps 749 mmHg 90%
    13:00 -4°C° 0.6 mm 2 mps 749 mmHg 90%
    14:00 -4°C° 0.6 mm 2 mps 748 mmHg 90%
    15:00 -6°C° 0.6 mm 3 mps 748 mmHg 91%
    16:00 -5°C° 0.3 mm 2 mps 748 mmHg 90%
    17:00 -6°C° 0.3 mm 2 mps 749 mmHg 90%
    18:00 -6°C° 0.3 mm 2 mps 749 mmHg 89%
    19:00 -6°C° 0.2 mm 2 mps 749 mmHg 90%
    20:00 -8°C° 0.2 mm 3 mps 750 mmHg 90%
    21:00 -8°C° 0.2 mm 3 mps 750 mmHg 90%
    22:00 -8°C° 0.2 mm 3 mps 750 mmHg 88%
    23:00 -9°C° 0.2 mm 4 mps 751 mmHg 87%

    21 January, Monday

    Time Temperature Precipitation Wind Pressure Humidity
    00:00 -9°C° 0.2 mm 4 mps 751 mmHg 85%
    01:00 -9°C° 0.1 mm 4 mps 751 mmHg 84%
    02:00 -9°C° 0.1 mm 4 mps 752 mmHg 83%
    03:00 -8°C° 0.1 mm 4 mps 752 mmHg 83%
    04:00 -8°C° 0.1 mm 5 mps 752 mmHg 82%
    05:00 -8°C° 0.1 mm 5 mps 753 mmHg 82%
    06:00 -8°C° 0.1 mm 5 mps 753 mmHg 81%
    07:00 -8°C° 0.1 mm 5 mps 753 mmHg 81%
    08:00 -8°C° 0.1 mm 5 mps 754 mmHg 80%
    09:00 -7°C° 0.1 mm 5 mps 754 mmHg 80%
    10:00 -8°C° 0.1 mm 6 mps 754 mmHg 78%
    11:00 -8°C° 0.1 mm 6 mps 754 mmHg 77%
    12:00 -6°C° 0.1 mm 6 mps 754 mmHg 75%
    13:00 -6°C° 0.1 mm 6 mps 754 mmHg 76%
    14:00 -8°C° 0.1 mm 6 mps 754 mmHg 77%
    15:00 -7°C° 0.1 mm 5 mps 755 mmHg 77%
    16:00 -8°C° 0 mm 5 mps 755 mmHg 79%
    17:00 -9°C° 0 mm 4 mps 755 mmHg 81%
    18:00 -8°C° 0 mm 3 mps 756 mmHg 84%
    19:00 -9°C° 0 mm 3 mps 756 mmHg 84%
    20:00 -9°C° 0 mm 3 mps 756 mmHg 85%
    21:00 -8°C° 0 mm 2 mps 756 mmHg 85%
    22:00 -9°C° 0 mm 2 mps 756 mmHg 86%
    23:00 -9°C° 0 mm 2 mps 756 mmHg 86%
    Show more